Weather History for Hutchinson, MN

Change the Weather History Date:

Tuesday, October 9, 2012

  Actual Average Record
Temperature  
Mean Temperature 39 °F -  
Max Temperature 49 °F 61 °F 82 °F (1966)
Min Temperature 29 °F 38 °F 17 °F (2000)
Degree Days  
Heating Degree Days 26    
Moisture  
Dew Point 34 °F    
Average Humidity 67    
Maximum Humidity 93    
Minimum Humidity 47    
Precipitation  
Precipitation 0.00 in - - ()
Sea Level Pressure  
Sea Level Pressure 29.84 in    
Wind  
Wind Speed 9 mph (West)    
Max Wind Speed 25 mph    
Max Gust Speed 37 mph    
Visibility 10 miles    
Events      
Averages and records for this station are not official NWS values.
T = Trace of Precipitation, MM = Missing Value Source: NWS Daily Summary

Daily Weather History Graph

Daily Weather History Graph

Search for Another Location

Airport:

Trip Planner

Search our weather history database for the weather conditions in past years. The results will help you decide how hot, cold, wet, or windy it might be!

Date:

Astronomy

Oct. 09, 2012 Rise Set
Actual Time 7:26 AM CDT 6:42 PM CDT
Civil Twilight 6:56 AM CDT 7:11 PM CDT
Nautical Twilight 6:22 AM CDT 7:45 PM CDT
Astronomical Twilight 5:48 AM CDT 8:19 PM CDT
Moon 12:48 AM CDT (10/9) 3:23 PM CDT (10/9)
Length of Visible Light 12h 14m
Length of Day
11h 16m
Last Quarter, 36% of the Moon is Illuminated
Oct 9
Last Quarter
Oct 15
New
Oct 21
First Quarter
Oct 29
Full
Nov 6
Last Quarter

Hourly Weather History & Observations

Time (CDT) Temp. Windchill Dew Point Humidity Pressure Visibility Wind Dir Wind Speed Gust Speed Precip Events Conditions
12:09 AM 46.6 °F - 41.2 °F 81% 29.75 in 10.0 mi Calm Calm - N/A   Overcast
12:29 AM 46.6 °F - 40.1 °F 78% 29.74 in 10.0 mi Calm Calm - N/A   Overcast
12:49 AM 46.6 °F - 40.1 °F 78% 29.74 in 10.0 mi Calm Calm - N/A   Mostly Cloudy
1:09 AM 47.7 °F - 41.0 °F 78% 29.74 in 10.0 mi Calm Calm - N/A   Mostly Cloudy
1:28 AM 47.8 °F - 40.6 °F 76% 29.74 in 10.0 mi Calm Calm - N/A   Mostly Cloudy
1:49 AM 49.1 °F - 41.0 °F 74% 29.74 in 10.0 mi SW 3.5 mph - N/A   Overcast
2:08 AM 49.1 °F - 40.5 °F 72% 29.74 in 10.0 mi SW 3.5 mph - N/A   Overcast
3:09 AM 49.1 °F - 40.6 °F 73% 29.73 in 10.0 mi WSW 4.6 mph - N/A   Overcast
3:29 AM 49.1 °F - 40.5 °F 72% 29.73 in 10.0 mi WSW 5.8 mph - N/A   Mostly Cloudy
3:48 AM 46.6 °F - 38.3 °F 73% 29.73 in 10.0 mi WSW 4.6 mph - N/A   Scattered Clouds
4:09 AM 46.6 °F - 38.5 °F 73% 29.73 in 10.0 mi WSW 4.6 mph - N/A   Clear
4:29 AM 46.6 °F - 38.5 °F 73% 29.73 in 10.0 mi WSW 5.8 mph - N/A   Scattered Clouds
4:49 AM 46.6 °F - 38.7 °F 74% 29.74 in 10.0 mi West 5.8 mph - N/A   Mostly Cloudy
5:09 AM 46.6 °F - 38.3 °F 73% 29.74 in 10.0 mi West 5.8 mph - N/A   Overcast
5:28 AM 46.6 °F - 38.7 °F 74% 29.75 in 10.0 mi West 6.9 mph - N/A   Overcast
5:49 AM 46.6 °F - 37.9 °F 72% 29.76 in 10.0 mi West 8.1 mph - N/A   Overcast
6:09 AM 46.6 °F - 37.9 °F 72% 29.76 in 10.0 mi West 9.2 mph - N/A   Overcast
6:17 AM 46.6 °F - 37.8 °F 71% 29.77 in 10.0 mi West 9.2 mph - N/A   Overcast
6:50 AM 44.6 °F 39.7 °F 37.4 °F 76% 29.79 in 10.0 mi WNW 9.2 mph - N/A   Overcast
7:10 AM 42.8 °F 38.6 °F 37.4 °F 81% 29.78 in 10.0 mi WNW 6.9 mph - N/A   Overcast
7:30 AM 41.0 °F 39.0 °F 39.2 °F 93% 29.79 in 10.0 mi WSW 3.5 mph - N/A   Overcast
7:50 AM 42.8 °F 40.1 °F 39.2 °F 87% 29.79 in 10.0 mi WSW 4.6 mph - N/A   Overcast
8:10 AM 42.8 °F 40.1 °F 39.2 °F 87% 29.79 in 10.0 mi WSW 4.6 mph - N/A   Overcast
8:11 AM - - - N/A% 29.79 in 10.0 mi WSW 4.6 mph - N/A   Overcast
8:28 AM 42.1 °F 38.4 °F 39.2 °F 90% 29.79 in 10.0 mi WSW 5.8 mph - N/A   Mostly Cloudy
8:49 AM 43.0 °F 36.4 °F 36.9 °F 79% 29.80 in 10.0 mi West 12.7 mph 19.6 mph N/A   Mostly Cloudy
9:09 AM 43.0 °F 38.2 °F 36.7 °F 78% 29.79 in 10.0 mi WSW 8.1 mph - N/A   Mostly Cloudy
9:29 AM 44.1 °F 39.5 °F 37.4 °F 77% 29.79 in 10.0 mi WSW 8.1 mph - N/A   Scattered Clouds
9:49 AM 46.6 °F - 37.8 °F 71% 29.79 in 10.0 mi West 13.8 mph - N/A   Clear
10:09 AM 46.6 °F - 36.3 °F 67% 29.80 in 10.0 mi West 12.7 mph 24.2 mph N/A   Clear
10:29 AM 49.1 °F - 34.9 °F 58% 29.79 in 10.0 mi West 15.0 mph 25.3 mph N/A   Clear
10:49 AM 49.1 °F - 32.9 °F 54% 29.79 in 10.0 mi WNW 20.7 mph 27.6 mph N/A   Scattered Clouds
11:08 AM 49.3 °F - 32.2 °F 52% 29.79 in 10.0 mi West 23.0 mph 28.8 mph N/A   Scattered Clouds
11:49 AM 49.6 °F - 30.4 °F 48% 29.80 in 10.0 mi West 24.2 mph 35.7 mph N/A   Mostly Cloudy
12:08 PM 49.5 °F - 29.8 °F 47% 29.80 in 10.0 mi West 25.3 mph 36.8 mph N/A   Mostly Cloudy
12:29 PM 49.1 °F - 31.1 °F 50% 29.81 in 10.0 mi West 17.3 mph 29.9 mph N/A   Overcast
12:49 PM 47.1 °F - 30.7 °F 53% 29.81 in 10.0 mi WNW 18.4 mph 23.0 mph N/A   Overcast
1:08 PM 49.1 °F - 30.7 °F 49% 29.81 in 10.0 mi West 21.9 mph 29.9 mph N/A   Overcast
1:28 PM 46.6 °F - 31.3 °F 55% 29.82 in 10.0 mi West 21.9 mph 29.9 mph N/A   Overcast
1:49 PM 49.1 °F - 33.1 °F 54% 29.82 in 10.0 mi West 24.2 mph 28.8 mph N/A   Overcast
2:03 PM 49.1 °F - 32.2 °F 52% 29.81 in 10.0 mi West 23.0 mph 29.9 mph N/A   Overcast
2:30 PM 48.2 °F - 33.8 °F 58% 29.82 in 10.0 mi West 24.2 mph 29.9 mph N/A   Overcast
2:50 PM 48.2 °F - 33.8 °F 58% 29.83 in 10.0 mi WNW 19.6 mph 28.8 mph N/A   Overcast
3:10 PM 48.2 °F - 35.6 °F 62% 29.83 in 10.0 mi WNW 23.0 mph 29.9 mph N/A   Overcast
3:30 PM 46.4 °F 38.5 °F 32.0 °F 57% 29.85 in 10.0 mi WNW 21.9 mph 34.5 mph N/A   Overcast
3:46 PM 46.9 °F - 33.1 °F 59% 29.86 in 10.0 mi WNW 21.9 mph 29.9 mph N/A   Overcast
3:49 PM - - - N/A% 29.85 in 10.0 mi WNW 23.0 mph 31.1 mph N/A   Overcast
4:09 PM 46.6 °F - 32.4 °F 58% 29.87 in 10.0 mi WNW 24.2 mph 31.1 mph N/A   Overcast
4:29 PM 46.6 °F - 32.9 °F 59% 29.88 in 10.0 mi WNW 19.6 mph 28.8 mph N/A   Overcast
4:49 PM 44.1 °F 35.4 °F 31.3 °F 61% 29.88 in 10.0 mi WNW 21.9 mph 34.5 mph N/A   Overcast
5:09 PM 43.3 °F 34.7 °F 30.2 °F 60% 29.90 in 10.0 mi WNW 20.7 mph 29.9 mph N/A   Overcast
5:29 PM 43.0 °F 34.0 °F 29.7 °F 59% 29.90 in 10.0 mi WNW 21.9 mph 28.8 mph N/A   Overcast
5:49 PM 42.8 °F 33.5 °F 28.6 °F 57% 29.91 in 10.0 mi WNW 23.0 mph 31.1 mph N/A   Overcast
6:08 PM 42.8 °F 34.0 °F 29.3 °F 59% 29.92 in 10.0 mi WNW 20.7 mph 29.9 mph N/A   Overcast
6:29 PM 42.8 °F 34.0 °F 30.0 °F 61% 29.93 in 10.0 mi WNW 20.7 mph 26.5 mph N/A   Overcast
6:49 PM 42.1 °F 33.3 °F 29.3 °F 61% 29.94 in 10.0 mi WNW 19.6 mph 29.9 mph N/A   Overcast
7:09 PM 41.5 °F 32.9 °F 28.4 °F 60% 29.95 in 10.0 mi West 18.4 mph 28.8 mph N/A   Overcast
7:28 PM 41.5 °F 33.5 °F 28.0 °F 59% 29.96 in 10.0 mi WNW 16.1 mph 25.3 mph N/A   Overcast
7:48 PM 41.5 °F 32.9 °F 28.2 °F 59% 29.96 in 10.0 mi WNW 18.4 mph 23.0 mph N/A   Overcast
8:09 PM 41.5 °F 34.2 °F 28.2 °F 59% 29.97 in 10.0 mi WNW 13.8 mph 21.9 mph N/A   Overcast
8:29 PM 39.4 °F 32.3 °F 26.4 °F 60% 29.98 in 10.0 mi West 11.5 mph - N/A   Scattered Clouds
8:49 PM 39.2 °F 32.5 °F 27.0 °F 62% 29.98 in 10.0 mi West 10.4 mph - N/A   Clear
9:08 PM 38.7 °F 32.4 °F 27.1 °F 63% 29.98 in 10.0 mi West 9.2 mph - N/A   Clear
9:28 PM 36.5 °F 29.2 °F 26.4 °F 67% 29.99 in 10.0 mi West 10.4 mph - N/A   Clear
9:49 PM 36.1 °F 29.3 °F 26.4 °F 68% 29.99 in 10.0 mi West 9.2 mph - N/A   Clear
10:08 PM 36.5 °F 29.2 °F 27.0 °F 68% 30.00 in 10.0 mi West 10.4 mph - N/A   Clear
10:29 PM 34.3 °F 27.0 °F 25.5 °F 70% 30.01 in 10.0 mi West 9.2 mph - N/A   Clear
10:49 PM 34.0 °F 27.2 °F 25.9 °F 72% 30.01 in 10.0 mi West 8.1 mph - N/A   Clear
11:09 PM 32.7 °F 25.7 °F 25.5 °F 75% 30.01 in 10.0 mi West 8.1 mph - N/A   Clear
11:29 PM 29.3 °F 23.2 °F 23.0 °F 77% 30.01 in 10.0 mi West 5.8 mph - N/A   Clear
11:48 PM 30.2 °F 24.3 °F 24.3 °F 79% 30.01 in 10.0 mi West 5.8 mph - N/A   Clear